Regional Weather Roundup
Issued by NWS

Home | Current Version | Previous Version | Graphics & Text | Print | Product List | Glossary On
Versions: 1 2 3 4 5 6 7 8 9 10 11 12 13 14 15 16 17 18 19 20 21 22 23 24 25 26 27 28 29 30 31 32 33 34 35 36 37 38 39 40 41 42 43 44 45 46 47 48 49 50
000
ASUS45 KCYS 030810
RWRWY

WYOMING REGIONAL WEATHER ROUNDUP
NATIONAL WEATHER SERVICE CHEYENNE WY
200 AM MDT FRI JUL 03 2015

NOTE:  "FAIR" INDICATES FEW OR NO CLOUDS BELOW 12,000 FEET
WITH NO SIGNIFICANT WEATHER AND/OR OBSTRUCTIONS TO VISIBILITY.

WYZ001-030900-
YELLOWSTONE NATIONAL PARK

CITY           SKY/WX    TMP DP  RH WIND       PRES   REMARKS
LK YELLOWSTONE   N/A     47  38  71 CALM      30.35S
W YELLOWSTONE  NOT AVBL

$$
WYZ002>013-054>058-071-098>099-030900-
NORTHERN WYOMING

CITY           SKY/WX    TMP DP  RH WIND       PRES   REMARKS
JACKSON        FAIR      57  45  62 E5        30.22S
CODY           FAIR      63  48  59 S7        30.17S
GREYBULL       FAIR      71  50  47 CALM      30.07F
WORLAND        FAIR      66  54  65 CALM      30.10S
SHERIDAN       FAIR      56  52  86 CALM      30.10F
BUFFALO        FAIR      59  51  75 SW6       30.16F
GILLETTE       FAIR      56  52  86 S6        30.14F
HULETT         FAIR      57  54  88 S5        30.15S
NEWCASTLE      PTSUNNY   61  54  77 CALM      30.15F

$$
WYZ014>020-022>026-101>103-030900-
CENTRAL WYOMING

CITY           SKY/WX    TMP DP  RH WIND       PRES   REMARKS
BIG PINEY      FAIR      50  39  66 NW7       30.29R
PINEDALE       FAIR      52  41  66 W3        30.29S
DUBOIS         FAIR      57  50  77 S5        30.31S
LANDER         FAIR      63  53  70 W7        30.21S
RIVERTON       MOCLDY    66  53  63 NE10      30.19F
CASPER         FAIR      64  53  67 E10       30.19F
DOUGLAS        FAIR      61  59  93 SE6       30.19F

$$
WYZ021-027>030-104>119-030900-
SOUTHERN WYOMING

CITY           SKY/WX    TMP DP  RH WIND       PRES   REMARKS
EVANSTON       FAIR      66  41  40 CALM      30.26S
KEMMERER       FAIR      61  46  59 N12G18    30.29S
FORT BRIDGER   SUNNY     63  37  39 W5        30.28S
ROCK SPRINGS   FAIR      61  50  67 NE9       30.25S
DIXON          PTSUNNY   60  45  58 NE6       30.24S
RAWLINS        FAIR      56  50  80 NE8       30.26S
SARATOGA       FAIR      50  46  87 CALM      30.28R
LARAMIE        FAIR      54  48  80 S6        30.29F
CHEYENNE       FAIR      60  55  83 NW3       30.24S
TORRINGTON     MOCLDY    63  59  87 E5        30.14S
PINE BLUFFS    FAIR      57  54  88 CALM      30.19F

$$



USA.gov is the U.S. government's official web portal to all federal, state and local government web resources and services.